Wind_Speed
17 20 20 19 18 15 13 13 12 11 11 10 9 8 8 9 10 12 13 13 14 15 15 16 16 16 17 19 21 22 23 23 24 27 29 30 31 31 33 36 40 42 43 43 42 41 39 37 37 38 41 42 39 36 33 33 30 27 26 25 25 25 26 27 26 24 25 27 27 27 28 29 31 33 35 36 38 39 40 40 40 40 39 38 36
18 20 21 20 18 15 13 13 12 12 11 10 9 8 8 9 10 11 12 13 14 15 16 17 17 18 18 19 20 22 24 24 24 25 27 29 31 31 32 32 35 39 43 44 44 44 43 41 39 37 39 41 40 38 36 36 33 30 30 29 28 28 29 29 29 27 26 28 28 27 29 30 31 31 33 35 36 37 38 40 41 42 41 40 39
17 19 20 19 17 14 14 13 13 12 10 9 8 8 8 8 9 9 9 10 12 14 16 17 17 18 20 20 20 22 24 25 26 25 26 27 30 32 33 32 33 35 39 43 45 46 45 44 43 41 39 38 39 40 39 38 35 34 35 30 29 31 32 31 32 30 27 27 29 30 30 30 31 33 32 32 33 34 36 38 40 42 42 41 40
16 16 16 15 14 14 14 13 12 11 9 8 8 7 7 7 7 6 7 7 8 10 13 15 16 18 19 20 20 20 22 24 25 26 26 26 28 30 32 34 33 33 35 38 42 45 46 46 46 44 42 39 38 40 42 39 37 38 38 32 31 33 34 34 35 32 29 28 29 30 29 30 31 33 32 31 32 33 34 36 39 40 42 42 41
15 14 14 13 13 13 13 13 12 10 8 7 7 6 7 6 5 5 6 7 8 9 9 10 12 15 16 18 19 19 19 21 24 25 26 26 26 28 30 33 34 34 35 36 38 41 44 46 46 46 46 43 41 40 41 40 39 40 39 36 36 34 32 36 39 35 30 29 29 28 28 31 30 30 31 33 34 34 33 35 37 39 40 41 41
16 16 15 14 13 14 14 13 12 10 8 6 6 6 7 6 5 5 6 7 9 10 10 9 9 11 12 14 15 16 17 18 20 23 25 25 25 26 28 30 33 34 36 36 37 38 40 43 45 47 47 48 47 44 43 42 41 41 39 39 41 37 32 36 42 39 33 31 30 29 28 30 29 28 30 31 34 36 35 35 35 36 38 38 39
17 17 17 15 16 17 15 13 12 10 8 6 5 6 6 6 6 7 8 8 10 11 12 12 11 10 11 12 12 13 15 17 18 20 23 25 25 25 26 28 30 32 35 36 37 39 39 41 43 45 47 48 50 50 48 47 45 44 42 41 43 42 39 40 42 41 38 35 32 31 30 29 28 28 29 28 31 34 36 37 36 35 36 36 37
19 19 18 17 17 17 15 13 12 10 8 6 5 5 6 7 7 8 9 10 12 14 15 15 15 14 13 13 13 13 14 16 17 18 19 22 24 25 25 26 28 30 32 34 37 38 40 41 42 44 45 47 49 51 51 51 50 49 47 44 43 43 42 41 39 39 42 39 34 33 32 30 28 28 30 29 28 27 30 36 38 37 37 36 36
21 21 20 18 18 18 16 13 12 10 9 7 6 6 6 8 9 10 12 13 14 16 17 18 18 18 17 16 16 16 15 16 17 18 18 19 21 23 25 25 27 29 31 33 35 37 39 40 42 43 44 45 47 49 49 49 50 50 49 47 46 45 43 42 41 42 44 41 37 37 35 32 30 30 30 30 30 26 22 29 36 38 37 37 36
22 22 20 19 18 18 16 14 11 10 10 8 7 7 8 9 11 12 14 16 17 18 20 21 22 21 20 20 19 18 18 18 18 19 20 19 20 21 24 25 26 28 30 32 35 36 38 39 41 42 43 45 46 47 48 48 48 48 48 47 47 47 46 47 47 47 48 44 40 40 39 35 31 30 30 29 31 30 23 24 32 36 36 37 37
20 21 21 20 19 18 17 14 12 11 11 10 9 9 10 11 13 15 16 18 20 21 22 23 24 24 23 23 22 21 21 20 19 19 20 21 21 21 23 25 26 28 29 31 33 35 37 38 40 41 41 43 44 45 46 47 47 46 46 47 46 47 48 50 50 50 51 49 44 43 43 38 32 30 30 29 29 29 27 26 29 32 35 35 37
19 20 22 22 20 19 18 15 13 12 12 11 11 11 12 13 15 17 19 21 22 23 24 25 26 26 25 25 24 23 23 22 21 20 20 21 22 22 23 24 26 28 29 30 32 34 36 37 39 40 40 41 42 44 45 46 47 46 46 47 46 47 48 49 51 51 52 51 47 44 42 40 36 31 29 29 28 26 27 27 25 26 31 35 37
20 21 22 22 22 20 19 17 15 15 14 13 14 14 15 16 18 20 22 23 24 25 26 27 28 27 27 26 25 24 24 23 23 22 20 20 21 22 23 25 26 28 29 30 31 33 35 36 37 39 40 40 41 42 43 44 45 46 47 46 46 47 47 47 49 50 52 53 50 46 42 40 38 33 31 31 29 26 27 28 24 21 24 30 35
21 21 22 23 22 21 19 18 18 17 16 16 16 17 18 20 21 22 24 25 26 27 28 28 29 29 28 27 26 25 24 24 24 24 23 21 20 21 23 25 27 28 29 31 32 32 33 35 37 38 39 40 40 41 41 42 44 45 46 46 46 47 46 45 45 46 49 52 52 51 47 43 40 36 35 34 30 28 28 29 27 23 21 23 29
21 21 22 23 22 22 20 19 18 17 17 17 18 20 21 22 23 24 26 27 27 28 29 29 30 30 29 28 27 26 25 25 25 26 26 24 23 22 23 24 27 28 30 31 32 34 34 35 36 38 39 40 40 40 40 41 42 44 44 45 45 47 47 46 43 42 46 49 50 50 48 47 44 40 37 36 33 31 29 29 30 28 24 22 25
21 22 23 23 23 23 21 19 18 18 19 20 21 22 23 23 23 25 27 28 28 29 29 29 30 30 29 28 28 27 27 27 27 27 27 28 27 26 25 25 26 29 30 32 33 34 35 36 37 38 39 40 41 41 40 40 40 42 43 44 44 46 47 47 43 43 46 48 47 47 47 48 47 44 41 38 37 35 33 31 32 32 28 24 23
20 21 22 23 23 22 20 18 18 19 20 22 23 23 22 22 23 25 27 28 28 28 28 29 29 29 29 28 28 27 28 29 29 28 28 29 29 30 29 28 28 29 30 32 33 34 35 36 37 38 38 40 41 42 42 41 40 41 41 42 43 44 46 47 47 47 48 47 48 48 47 47 45 44 44 42 40 39 38 34 32 33 33 29 25
19 20 20 20 20 20 20 18 19 20 21 23 23 22 22 22 24 26 27 27 27 27 27 27 28 28 28 28 28 28 28 29 30 30 30 30 31 32 32 32 32 31 31 32 33 35 36 36 37 38 38 39 40 41 42 42 41 41 41 41 41 42 45 47 48 48 48 48 49 49 48 47 44 42 45 46 43 41 42 39 35 33 34 36 32
19 20 20 20 20 20 20 20 19 19 22 23 23 23 22 23 24 25 26 27 26 26 26 26 27 27 28 28 28 28 29 30 31 32 32 32 33 33 34 35 35 35 34 34 33 34 35 36 37 38 38 39 40 41 42 43 43 43 42 41 40 41 42 45 46 47 49 49 49 49 49 47 45 44 45 48 47 44 44 42 37 34 34 37 38
19 20 20 20 20 19 21 21 19 19 23 24 24 23 23 23 23 24 26 26 27 27 27 27 27 27 28 28 29 29 30 31 32 33 34 34 35 36 36 37 37 37 37 36 36 35 35 36 37 38 39 40 40 41 42 43 44 45 44 42 41 41 41 42 43 45 48 49 49 50 50 48 47 47 45 46 48 47 45 44 40 36 35 35 37
20 20 19 20 19 20 22 21 18 20 23 23 24 23 23 24 24 25 26 26 27 27 28 28 27 28 29 30 30 31 31 32 33 33 34 36 37 39 39 39 39 39 39 38 38 37 36 36 37 39 40 40 41 42 43 44 45 46 46 45 43 42 42 41 42 43 46 49 51 50 48 46 46 47 47 46 48 49 47 47 45 40 38 37 35
20 20 20 19 19 22 24 20 17 21 23 23 24 24 25 26 26 26 27 27 28 28 29 29 29 30 31 31 31 31 32 33 33 34 35 37 39 41 42 42 41 40 39 39 38 38 37 36 36 38 40 41 42 43 44 45 46 47 47 47 45 44 43 42 42 42 44 47 51 51 48 47 48 49 50 48 47 49 49 48 47 44 43 41 37
20 20 20 20 20 22 21 19 18 22 24 25 26 25 26 28 28 28 28 28 29 29 29 29 30 31 32 32 32 32 32 33 33 35 36 38 40 41 43 43 42 40 38 37 37 36 36 36 35 37 40 42 43 45 46 47 48 48 48 48 48 46 44 43 42 42 42 44 49 51 49 47 48 49 48 47 48 49 49 49 47 44 44 43 39
20 20 20 20 20 20 19 20 22 25 26 26 27 27 28 29 29 29 29 29 30 30 30 30 31 32 33 33 33 33 33 33 34 36 37 39 40 41 42 41 40 39 37 35 34 34 34 35 34 34 38 42 44 46 47 48 49 50 50 50 50 48 47 45 43 42 41 42 45 50 51 47 47 49 48 46 48 49 47 48 47 43 44 46 42
21 22 22 21 20 20 21 23 25 27 28 28 28 28 29 30 29 29 29 29 30 30 31 31 32 33 33 33 33 33 33 34 35 37 38 39 40 40 38 37 37 37 36 35 34 33 32 33 33 33 35 40 44 46 48 49 50 51 52 52 52 51 50 48 46 43 42 42 43 47 51 49 47 51 52 47 47 48 48 49 47 45 45 46 43
23 22 23 23 23 22 24 26 27 28 30 30 30 30 30 30 30 30 29 29 30 31 31 32 33 33 33 33 33 34 34 35 37 38 38 39 39 37 35 35 35 36 35 35 35 34 33 32 32 32 34 38 43 46 48 49 51 52 52 53 53 53 52 51 49 47 45 44 43 44 48 50 49 52 54 51 49 48 49 51 50 47 47 48 45
24 23 24 26 25 24 26 29 29 29 30 31 32 32 31 31 31 30 30 30 30 30 31 32 32 33 33 33 34 34 36 37 38 38 38 38 37 35 34 34 36 36 36 36 36 35 34 33 32 32 33 36 40 44 48 49 50 51 52 52 53 53 54 53 52 51 48 46 45 45 47 49 51 53 53 53 52 50 49 52 52 49 49 50 47
25 25 25 26 25 25 28 29 29 30 32 33 33 32 31 31 31 30 30 30 30 30 31 32 32 32 33 34 35 36 37 38 38 38 38 37 35 34 34 36 37 38 37 37 37 37 36 35 35 34 34 35 38 41 45 48 49 50 51 51 52 53 54 54 54 53 51 49 48 46 47 49 51 53 53 53 55 54 51 51 53 52 51 50 47
25 25 25 25 25 27 29 29 30 32 33 33 33 32 31 31 31 30 30 29 29 30 31 32 32 33 34 35 37 38 39 39 38 37 36 35 34 34 35 37 38 38 38 37 37 38 38 38 38 37 37 37 38 40 42 44 47 49 50 50 50 52 53 54 55 54 53 52 50 48 48 49 50 52 53 53 55 56 52 50 52 54 53 51 49
25 24 24 25 26 28 29 30 32 33 34 33 32 31 31 31 30 30 29 29 30 31 31 32 32 33 34 36 38 39 39 39 38 37 36 35 34 35 36 37 38 38 38 38 38 38 40 40 41 41 41 41 41 41 41 42 44 46 49 51 51 51 53 54 55 55 53 53 52 50 48 48 50 51 52 53 55 58 55 51 52 54 54 53 52
23 23 25 27 27 28 29 31 33 33 32 32 31 31 30 30 29 29 29 30 30 31 31 31 32 33 35 36 38 39 39 39 39 38 36 35 35 36 37 37 38 38 38 38 39 40 41 42 43 44 44 44 44 44 43 43 44 45 47 51 52 52 52 54 55 54 53 53 52 52 49 48 49 50 51 52 53 57 58 55 53 54 56 55 54
23 25 27 28 27 28 30 31 32 31 30 31 30 30 29 29 29 29 30 30 30 30 30 30 31 33 35 36 38 38 39 39 39 38 37 36 36 36 37 38 38 39 39 40 41 42 42 43 45 46 47 47 47 47 46 45 46 46 47 50 53 53 53 54 55 54 53 52 52 52 50 48 48 49 50 52 52 55 58 57 54 54 56 56 56
24 26 27 27 27 29 29 30 29 29 29 29 29 28 28 29 29 29 30 30 30 30 29 30 31 32 34 36 37 38 39 39 39 38 37 36 36 37 37 38 39 40 41 42 42 42 43 44 46 49 51 52 52 51 49 47 46 47 48 50 53 54 54 54 55 54 52 51 52 52 50 48 47 48 49 51 52 53 56 57 55 53 54 56 57
26 26 27 27 28 28 28 28 27 27 27 27 27 28 28 29 29 30 30 30 29 29 29 29 31 32 34 36 38 39 40 40 38 37 36 36 36 36 37 38 40 41 42 43 43 44 44 46 49 51 54 55 55 54 52 49 48 47 48 51 53 54 55 55 55 53 52 51 51 51 49 47 46 46 49 50 50 52 56 58 57 55 55 57 57
25 26 27 27 27 27 27 26 25 25 26 26 27 28 28 28 29 29 29 29 28 28 28 29 31 33 35 37 39 40 39 38 37 36 35 35 35 36 37 38 39 41 42 43 44 46 48 50 53 54 55 55 56 55 54 51 49 48 48 50 53 55 56 56 55 54 52 51 51 50 48 46 44 44 47 48 47 50 54 58 59 57 56 57 55
26 26 27 27 27 26 24 24 24 25 26 27 28 28 28 28 28 28 28 28 28 28 28 29 31 33 36 38 39 39 37 36 35 34 34 34 34 35 36 37 38 40 42 44 46 49 52 54 56 56 55 55 54 53 52 50 47 47 48 50 53 56 57 57 56 55 52 51 51 50 48 44 41 42 45 45 45 48 52 57 60 58 57 57 55
26 26 26 26 26 24 23 23 24 26 27 28 28 28 28 28 28 27 27 28 28 28 28 30 32 34 36 38 38 37 35 34 33 32 32 32 33 34 35 36 38 40 42 45 49 52 54 56 56 54 53 52 51 49 48 47 45 45 48 50 53 56 58 58 56 55 53 52 51 51 49 45 41 40 43 44 44 47 52 56 59 59 58 57 57
25 26 25 25 24 22 22 24 25 26 27 27 27 27 27 27 26 26 27 29 29 29 29 30 33 35 37 38 37 35 33 33 32 31 31 31 32 34 36 37 39 41 44 47 51 53 55 54 52 49 47 49 49 46 45 44 42 44 47 50 52 54 56 57 56 55 54 54 53 52 52 48 44 42 43 44 44 47 51 55 58 60 59 58 59
25 26 25 24 23 22 23 24 24 25 25 26 27 27 26 26 26 27 29 30 30 30 30 31 34 35 36 36 35 33 32 31 30 30 30 31 32 34 36 37 40 43 47 49 51 53 52 49 45 42 43 46 46 44 43 41 39 42 46 49 50 52 54 55 55 55 56 56 55 55 54 52 47 45 45 45 44 46 50 53 57 59 59 59 60
25 25 23 22 22 22 23 23 23 24 25 26 27 26 25 25 26 28 29 30 31 31 30 32 34 35 35 35 33 32 31 30 30 30 30 30 32 34 36 38 41 45 47 48 48 47 45 40 37 38 41 44 43 41 39 38 38 41 45 47 48 49 52 53 55 56 57 57 57 56 56 53 50 49 48 45 45 46 48 52 56 57 58 58 58
23 22 21 20 21 22 22 22 23 24 25 25 25 25 25 26 27 29 30 31 31 31 31 33 34 34 34 33 31 30 30 29 29 30 29 29 31 33 36 39 43 46 45 43 41 38 36 34 34 36 40 42 41 38 35 34 37 40 43 45 46 47 50 52 55 56 57 58 58 57 57 55 54 53 50 46 45 47 48 51 54 56 56 55 56
21 21 21 20 21 22 22 22 23 23 24 24 24 24 25 27 28 29 30 31 32 31 32 33 34 33 32 31 30 29 29 29 29 29 29 28 30 33 36 40 44 44 41 37 33 30 30 31 32 34 38 37 33 29 28 29 32 36 38 40 43 44 45 48 51 54 55 57 57 56 57 59 57 56 53 48 45 45 47 50 52 55 56 54 55
20 20 21 20 20 21 22 22 22 23 23 23 23 25 27 28 28 29 30 31 31 32 33 33 33 32 31 29 28 28 29 29 29 28 28 28 30 32 36 39 41 40 36 31 27 25 26 29 30 31 32 29 23 20 20 22 26 30 32 35 36 36 38 40 45 48 51 53 54 56 58 58 56 54 52 49 45 45 47 50 51 54 56 55 54
19 20 20 20 20 21 22 22 22 22 22 22 23 26 28 28 29 29 30 30 31 32 32 31 31 31 29 26 26 27 28 29 29 28 27 28 30 32 36 39 39 35 32 27 24 23 24 25 26 25 25 22 17 15 16 18 22 25 27 29 29 30 32 35 39 43 46 49 53 55 54 50 48 48 49 48 46 46 47 49 51 53 56 56 56
19 19 20 20 20 21 21 21 21 21 21 22 24 27 29 29 29 29 29 30 31 31 30 29 30 28 26 24 25 26 27 28 27 27 27 28 30 33 36 39 37 32 27 25 22 21 21 22 22 21 19 17 15 13 14 17 20 22 23 24 24 25 28 32 36 40 43 47 50 49 46 44 44 45 47 47 47 46 47 48 50 53 56 57 55
19 19 19 19 18 19 19 19 20 20 21 24 26 27 29 29 28 28 28 30 30 29 28 28 27 25 23 23 24 25 26 26 26 26 27 28 30 33 35 38 37 30 23 21 19 17 16 18 19 20 18 17 17 15 15 18 22 24 24 23 23 24 26 29 33 36 38 40 41 40 41 43 43 45 46 47 46 46 46 48 50 52 54 56 52
18 18 17 16 16 17 17 18 19 20 22 24 25 27 28 27 27 27 28 28 27 26 26 25 24 22 22 23 23 24 25 25 25 26 27 27 29 31 34 37 36 28 21 18 16 14 14 15 15 17 18 18 18 17 15 19 24 26 26 24 23 24 25 27 29 32 32 33 34 37 41 43 44 44 45 44 44 44 45 47 50 51 53 53 49
15 14 13 13 14 15 16 17 18 20 21 23 25 27 27 26 26 27 27 26 24 24 23 22 21 21 22 22 23 24 24 25 25 26 27 27 28 29 32 35 36 29 21 17 15 13 14 14 12 10 12 15 17 16 14 17 22 26 27 26 25 24 25 25 26 29 31 31 33 37 40 42 43 44 44 44 44 44 44 44 47 51 53 51 46
12 11 10 11 13 14 15 15 16 18 19 22 24 26 25 26 26 26 25 23 22 22 21 20 20 21 22 23 23 24 24 24 25 25 26 27 28 29 30 33 33 29 23 20 17 13 12 12 8 5 6 6 9 13 13 12 17 22 26 26 24 25 26 26 26 29 31 31 33 36 38 40 42 43 43 44 45 44 42 43 46 50 50 48 46
9 8 9 10 11 12 13 13 14 14 17 20 22 24 24 24 24 23 22 20 20 20 19 19 20 21 22 23 24 25 25 25 25 25 25 25 26 28 30 32 32 28 24 22 20 16 13 12 8 5 8 7 2 10 12 10 11 17 22 23 24 25 26 26 28 29 30 30 32 35 37 38 40 41 44 46 45 43 42 44 47 48 47 46 46
6 7 9 9 9 10 11 10 10 11 13 16 19 21 22 21 20 20 19 17 17 18 18 18 20 21 22 23 24 25 26 26 25 25 25 25 25 26 28 31 32 28 23 22 21 17 15 13 9 5 4 5 4 6 12 13 12 13 16 18 20 23 24 24 26 27 28 29 31 33 36 37 39 43 45 45 43 42 43 45 45 43 43 46 49
Wind_Direction
243 239 233 232 240 244 246 249 245 245 248 248 244 244 249 249 247 246 247 249 251 254 257 260 265 268 268 268 268 267 262 256 250 247 247 249 250 250 249 247 245 244 244 244 243 243 243 243 244 244 243 243 241 240 239 238 239 243 246 245 243 237 235 239 243 243 242 240 237 236 236 234 233 231 230 230 231 232 234 235 237 239 241 242 242
238 233 228 227 234 238 239 240 236 236 244 245 240 241 247 247 245 245 248 252 255 258 258 258 260 264 266 267 268 270 270 267 261 253 249 248 250 251 250 249 247 245 244 245 245 245 244 244 245 245 244 245 244 242 241 238 238 242 245 246 247 243 237 236 241 244 245 246 244 242 240 238 237 235 233 233 232 233 234 235 237 238 240 242 243
236 229 227 228 231 231 230 230 229 233 239 238 235 237 245 247 246 247 251 255 257 260 261 261 260 260 261 263 265 268 270 270 269 265 258 251 248 249 250 249 247 246 245 244 245 246 247 247 248 247 246 246 244 241 240 238 238 242 244 243 245 247 242 235 238 242 242 245 247 246 244 242 239 237 235 235 235 234 234 235 237 238 239 240 242
231 227 225 225 225 224 224 225 227 231 231 229 232 236 240 241 244 255 265 268 266 263 261 262 262 260 259 260 262 266 270 271 270 269 266 261 253 249 249 249 248 247 245 245 244 245 247 249 251 251 249 248 245 241 241 240 238 243 247 244 243 248 248 239 237 239 237 238 245 247 248 248 243 240 238 237 237 236 235 235 236 238 239 240 241
224 219 217 219 222 223 223 224 225 222 218 221 228 229 229 232 246 267 279 284 287 282 273 266 262 262 262 260 261 265 270 274 274 272 270 267 262 255 250 248 248 248 247 246 245 245 245 248 250 251 252 250 248 244 244 245 242 244 248 249 248 250 250 245 240 237 234 235 240 244 246 248 247 245 242 239 238 237 236 236 235 236 238 239 240
223 221 220 220 222 223 223 224 220 210 207 213 220 222 227 238 257 276 285 292 297 296 291 285 275 270 270 267 267 270 273 276 278 277 274 271 267 263 257 252 249 247 247 246 246 245 245 246 247 248 250 250 250 247 246 248 247 246 246 248 252 251 250 251 245 236 232 233 237 240 241 245 247 245 245 244 242 239 237 238 237 236 237 238 239
222 224 226 226 226 226 226 224 216 209 208 211 220 231 240 254 269 281 290 297 302 302 301 300 295 289 284 280 278 279 281 280 280 280 277 275 272 268 264 259 255 252 249 247 247 246 245 245 245 246 247 248 249 249 248 249 251 252 249 248 252 252 251 253 248 239 235 232 233 238 239 241 243 243 243 245 246 244 240 239 239 239 238 237 238
222 225 227 229 230 230 229 226 221 217 218 222 234 252 261 269 277 284 292 299 303 304 306 307 306 303 299 294 289 288 291 289 284 281 278 276 273 271 267 264 262 260 257 254 251 249 247 246 245 245 246 246 248 249 248 248 250 252 253 252 253 254 254 250 244 245 245 238 233 235 237 238 238 239 240 241 246 248 245 243 241 240 240 239 239
227 227 227 229 231 232 231 231 229 226 225 231 246 264 275 281 285 288 292 298 302 303 306 307 308 308 306 303 298 294 295 296 291 285 281 276 271 268 266 265 265 264 263 262 259 256 253 250 248 246 245 245 246 248 249 249 249 249 251 253 254 256 256 248 239 244 250 247 241 236 235 235 234 236 238 237 242 245 247 247 244 241 241 241 241
228 226 228 232 234 235 238 239 236 233 232 237 252 267 278 284 288 291 293 297 300 301 303 304 306 308 307 306 303 298 296 298 297 292 287 281 274 268 263 262 263 264 264 265 265 263 261 257 254 250 248 247 246 246 247 248 249 249 249 250 251 252 255 252 244 245 249 249 249 243 234 232 231 233 236 235 238 242 243 248 248 243 242 243 243
227 227 230 236 238 239 244 246 241 238 238 244 258 269 275 282 287 290 293 295 297 298 299 301 303 304 306 307 305 302 298 298 298 296 291 286 280 273 266 261 260 261 263 264 266 266 265 263 261 257 253 250 248 247 246 246 247 248 248 248 249 248 251 252 250 251 251 248 251 247 238 234 232 230 233 235 238 243 243 245 250 249 245 243 244
226 229 234 236 237 240 246 247 244 243 246 255 266 271 275 281 287 289 291 292 293 293 295 297 299 301 302 304 303 302 300 299 299 298 294 289 284 278 272 266 261 259 259 261 264 265 266 266 264 263 259 254 251 249 248 247 246 247 248 249 249 249 249 250 249 251 251 247 246 246 244 241 235 228 229 234 236 240 243 244 246 248 247 246 244
226 230 236 236 235 240 245 246 246 249 255 263 268 272 277 281 286 286 287 287 287 288 290 292 295 296 298 300 299 298 299 300 301 300 298 293 287 282 276 270 265 261 259 258 260 262 264 266 265 264 263 260 256 252 249 249 248 247 247 248 249 250 249 249 249 249 250 248 246 247 248 242 236 232 231 232 233 234 239 242 241 242 245 246 245
230 231 235 237 237 241 245 246 248 252 259 267 270 274 278 281 284 283 281 282 282 283 285 288 290 293 295 296 295 294 295 298 300 302 301 299 293 286 279 272 267 262 261 259 258 258 259 262 264 265 264 262 259 256 252 250 249 248 247 247 247 249 249 249 248 247 248 249 248 248 248 244 240 237 233 232 233 232 235 240 241 241 241 241 243
231 230 231 236 239 243 247 249 252 258 265 270 272 275 277 279 281 279 277 277 277 279 281 283 286 289 292 293 292 291 291 294 298 300 301 302 299 294 286 277 270 264 261 259 258 258 257 257 260 262 264 264 262 260 256 252 250 248 248 247 246 247 248 248 247 247 248 249 248 248 248 249 246 240 234 232 233 235 237 239 240 240 240 241 240
228 228 230 235 240 245 250 253 258 265 270 271 272 274 276 277 277 274 273 273 274 275 277 280 283 286 289 290 289 288 289 292 295 297 300 302 302 299 295 287 278 270 264 260 258 258 257 256 256 257 259 262 263 262 260 256 253 250 248 247 246 246 247 248 245 244 246 248 250 251 251 250 248 243 238 234 234 239 239 237 238 238 239 242 242
226 226 228 234 239 245 253 259 265 269 270 270 273 274 274 274 274 272 271 271 272 273 275 277 281 284 286 286 286 286 288 291 293 296 298 301 302 301 298 294 287 279 271 265 261 259 258 257 256 255 255 257 260 261 261 259 256 254 250 247 245 245 246 247 246 244 245 247 250 252 253 251 249 245 240 236 236 240 241 237 235 236 239 241 241
223 224 227 230 233 241 251 261 268 269 269 270 272 273 271 270 271 271 270 271 271 272 274 276 279 282 283 283 284 284 286 290 292 295 298 300 301 301 299 297 293 288 281 273 266 262 260 258 257 255 254 253 255 257 260 261 259 257 254 250 246 244 244 246 246 246 246 247 247 249 252 252 251 247 241 238 239 239 240 239 233 233 239 241 239
221 224 228 230 232 237 246 257 262 263 265 269 271 271 270 270 271 271 270 270 270 271 273 275 277 279 281 282 283 284 286 289 292 296 299 300 301 300 299 297 294 291 287 281 274 267 262 260 258 257 254 253 252 253 255 258 259 258 256 253 249 245 243 244 245 246 247 247 246 246 249 249 250 250 244 240 241 239 237 238 235 232 236 241 241
222 227 230 232 235 236 242 251 258 260 263 267 269 270 271 273 274 273 272 269 268 269 270 273 275 277 280 281 283 284 286 289 293 296 299 300 301 300 299 297 294 292 289 285 281 275 267 261 259 258 256 254 252 251 252 254 256 257 257 254 251 248 246 244 244 244 245 247 245 243 245 246 249 251 247 240 237 236 234 236 236 234 233 236 242
227 230 231 233 237 238 241 250 259 262 263 266 267 268 271 275 276 275 272 268 266 267 268 271 274 276 278 280 282 283 286 289 292 295 297 299 300 300 299 297 295 292 290 288 284 280 274 267 260 257 256 254 252 251 251 251 253 255 256 256 254 251 249 247 245 243 243 245 245 243 241 241 244 247 246 241 235 232 232 236 238 236 233 231 236
230 232 232 233 236 238 245 253 257 259 263 266 266 268 272 274 276 276 272 268 266 267 268 271 274 277 279 280 281 283 286 289 292 295 296 297 297 298 298 298 296 294 291 289 286 283 279 273 265 258 255 253 252 251 250 250 251 252 253 255 255 252 250 248 248 246 243 242 244 244 239 235 236 239 242 242 238 233 231 233 236 236 233 230 231
230 232 233 234 235 241 254 263 260 257 260 263 265 268 270 273 276 276 272 269 268 268 271 274 277 279 279 281 282 285 288 290 293 295 296 296 296 297 298 297 297 295 292 289 287 285 282 278 270 261 255 251 250 250 250 250 250 250 251 252 253 253 251 248 247 247 245 242 241 243 241 235 232 234 238 240 239 236 232 232 234 233 229 226 227
232 233 237 244 250 256 263 262 259 259 260 261 264 265 268 273 277 276 273 270 270 272 275 277 278 279 280 282 285 288 290 292 294 295 295 296 296 297 297 296 295 294 293 290 287 286 285 282 275 265 255 250 248 247 247 248 249 249 250 250 251 252 251 249 246 245 244 243 241 240 240 236 231 231 233 235 237 237 235 232 232 232 230 226 226
235 237 244 256 264 264 258 254 257 262 262 261 263 264 269 274 276 274 271 270 271 273 275 276 277 279 281 284 287 289 291 293 295 295 295 296 297 296 294 293 293 293 292 291 288 287 285 284 280 270 258 250 247 245 245 246 247 248 249 249 249 250 250 249 247 244 243 243 241 239 239 237 232 229 228 228 231 234 235 233 231 231 230 226 224
237 240 245 254 259 257 256 258 260 261 263 263 263 265 270 273 272 270 269 269 271 273 275 277 278 281 284 286 289 291 293 294 295 295 296 296 295 293 290 289 290 290 289 289 287 286 285 284 282 276 264 254 248 245 244 243 244 246 247 248 248 248 249 249 249 247 244 244 242 240 238 237 234 231 227 226 228 230 232 233 232 228 226 225 223
238 241 246 254 260 257 257 260 261 260 262 263 263 267 270 270 269 269 269 270 271 273 275 277 280 283 286 288 291 293 294 295 296 296 296 296 293 288 285 285 286 286 286 286 285 285 285 284 283 280 273 264 254 248 245 243 242 243 245 246 247 247 247 248 249 248 247 245 243 240 237 236 235 232 228 227 226 227 229 232 230 226 223 223 222
239 246 254 260 260 257 257 259 259 259 260 261 264 268 269 269 270 269 269 270 271 273 275 277 280 284 287 290 292 294 295 296 297 297 297 295 289 283 281 282 283 284 284 283 283 283 283 283 282 280 277 272 264 255 249 245 243 243 244 245 245 246 246 247 248 249 248 247 245 242 237 235 233 232 229 226 225 226 228 228 226 224 223 222 221
243 253 261 260 254 253 257 258 256 256 258 261 264 267 268 269 270 269 269 269 270 273 275 278 281 285 288 290 292 294 296 297 297 297 296 292 286 281 280 281 282 282 282 281 281 281 281 281 279 277 275 271 267 262 256 251 248 245 244 245 245 245 246 246 246 248 249 248 247 243 238 235 233 231 230 227 224 225 227 226 224 224 224 222 220
247 253 258 260 258 255 254 254 254 256 259 262 264 266 268 269 269 268 269 270 272 274 276 279 283 286 289 291 293 295 297 297 297 296 293 289 284 282 281 281 281 280 280 279 278 277 277 278 277 275 273 269 266 263 260 257 254 250 247 246 245 244 245 245 246 246 247 248 248 245 240 235 232 231 231 229 225 223 226 227 225 225 225 223 221
244 248 257 263 262 255 251 252 254 257 259 262 264 266 267 268 269 269 271 272 274 276 279 282 285 288 291 293 295 297 297 297 296 295 292 288 285 283 281 280 279 278 277 276 275 275 275 275 276 276 274 272 268 264 260 257 255 253 250 247 245 244 244 245 245 245 245 247 247 246 242 237 233 231 230 231 228 224 223 225 225 224 225 226 224
243 251 261 262 256 250 249 250 253 256 259 261 264 266 267 268 270 272 274 276 277 279 281 285 288 291 294 296 297 298 298 297 296 294 291 288 286 284 282 281 280 278 276 275 274 274 275 275 276 277 276 275 272 269 264 258 255 253 251 248 246 243 242 243 244 244 244 245 246 245 243 239 234 232 230 230 229 226 223 223 225 225 225 226 225
248 256 258 254 248 248 249 250 253 257 259 261 263 265 267 270 273 275 277 278 280 282 284 288 292 294 297 299 299 299 299 298 297 294 292 289 288 287 285 284 282 279 277 276 275 274 275 277 279 279 279 277 275 273 269 263 258 254 250 248 246 243 240 240 242 243 242 243 243 244 244 241 235 232 232 230 228 227 224 221 223 226 227 226 226
253 254 252 248 248 250 250 252 256 257 258 260 262 265 269 272 274 276 277 278 281 284 287 291 294 297 300 301 300 300 300 299 297 295 293 292 292 291 289 287 285 282 279 277 276 276 277 279 282 283 281 279 276 274 271 267 260 255 249 246 244 242 239 238 239 241 240 240 241 241 243 241 236 233 232 230 228 226 225 221 220 223 226 226 227
251 248 246 248 250 251 252 254 255 255 256 259 262 267 270 272 274 274 276 278 281 285 290 293 296 300 302 302 302 302 301 299 297 296 295 295 296 295 293 291 288 285 282 280 279 279 280 282 285 285 283 279 276 273 271 266 259 252 248 244 242 241 238 236 237 238 238 238 238 239 240 239 235 232 232 231 228 226 225 222 219 220 225 226 226
248 246 246 250 251 252 253 253 253 255 259 262 265 269 270 271 272 273 275 278 281 286 290 293 298 301 302 302 304 303 301 299 297 297 298 299 299 298 296 294 292 289 286 285 283 283 283 285 287 287 285 281 276 272 269 264 255 247 243 241 240 240 238 234 234 235 236 237 236 236 237 236 233 230 230 230 228 226 225 222 218 218 223 227 227
248 248 250 252 252 253 254 254 256 259 262 265 267 268 268 269 270 272 274 277 281 286 289 293 299 301 302 305 306 304 302 300 300 300 301 301 301 300 300 299 296 293 291 289 288 287 288 289 288 287 284 280 276 271 266 260 250 241 238 237 237 238 237 234 232 232 234 236 235 234 234 233 231 230 229 228 226 225 225 223 219 218 220 224 225
249 250 251 252 252 255 257 259 261 262 263 265 266 266 267 267 268 270 273 276 280 285 289 294 299 301 304 307 307 304 302 301 302 303 303 303 304 304 304 302 300 298 296 295 294 293 292 291 288 285 282 279 276 272 265 257 247 238 235 234 234 235 235 234 231 230 232 234 235 234 233 232 232 231 230 227 224 223 224 223 219 218 218 220 223
251 251 251 252 256 259 262 263 263 263 263 264 264 264 264 264 266 269 271 274 280 284 289 295 298 301 305 308 306 304 303 303 304 303 303 305 308 308 307 304 303 303 303 301 299 297 294 290 285 281 279 278 276 272 265 255 244 236 233 233 233 233 233 233 231 229 230 232 234 234 234 233 233 232 232 229 225 223 223 222 220 218 218 219 220
252 252 252 256 262 264 265 265 264 264 263 263 261 261 261 262 263 265 269 274 279 284 290 295 297 302 306 307 305 304 303 304 304 304 305 309 311 310 308 307 309 310 310 307 303 299 294 288 282 278 278 280 280 275 265 253 242 234 231 232 233 232 231 231 230 229 229 230 232 233 234 234 234 233 233 230 226 224 223 222 220 218 217 217 217
252 255 257 261 265 266 267 268 266 264 263 261 259 258 258 258 260 263 269 274 279 285 291 294 297 303 307 306 305 304 305 305 305 304 306 309 311 311 312 314 317 317 314 309 303 297 291 285 280 277 279 282 282 275 262 248 238 231 228 228 230 230 230 228 228 228 228 229 231 232 233 234 233 232 232 231 228 226 223 222 221 218 216 217 216
252 257 261 263 266 267 267 266 264 261 259 258 257 255 254 255 259 264 269 274 280 286 290 292 298 304 307 305 305 306 306 307 306 305 306 309 312 315 318 321 322 320 315 308 300 293 288 285 281 279 280 283 280 267 252 238 230 226 223 224 226 227 227 227 226 227 228 229 230 230 231 232 232 230 230 229 229 227 224 221 220 217 214 215 217
254 259 262 263 264 264 264 262 260 257 256 255 253 252 251 254 258 263 268 274 280 286 289 293 301 306 306 306 307 309 309 308 307 307 308 312 316 319 322 326 326 321 313 306 300 297 294 289 284 279 279 279 272 255 241 228 222 220 219 219 221 221 223 225 225 225 227 228 228 229 230 232 232 230 228 226 226 226 224 220 218 215 214 214 216
258 262 264 264 264 262 261 260 257 254 253 252 250 248 248 251 256 262 267 274 281 285 289 297 304 307 308 310 312 313 312 310 310 311 313 316 319 322 325 330 329 321 311 306 305 304 300 295 287 279 274 272 262 247 236 223 217 217 218 218 218 218 219 222 223 224 225 226 228 229 229 230 230 227 224 223 224 224 223 219 216 214 213 214 216
261 263 265 265 265 263 261 259 255 252 251 249 245 244 245 249 255 261 268 275 281 286 293 302 308 310 314 318 318 316 315 313 313 316 318 319 321 324 328 331 331 324 311 307 311 309 302 295 289 280 272 265 253 241 230 217 210 212 216 218 218 218 219 222 223 223 224 226 228 228 227 227 226 222 219 220 221 222 221 217 215 213 213 213 215
262 265 267 268 268 266 263 259 254 250 247 243 240 240 243 247 254 261 269 275 281 289 299 307 312 317 322 325 323 321 319 318 319 321 323 323 325 327 330 332 333 327 313 308 316 319 311 301 291 283 273 261 252 243 227 212 205 205 210 216 218 217 217 218 218 219 220 223 224 222 220 219 218 215 215 218 219 220 218 215 212 212 212 213 213
264 269 270 271 270 266 261 257 251 246 242 238 236 236 240 246 254 262 269 275 283 294 306 313 320 328 332 331 328 327 326 326 327 327 326 327 328 330 333 335 335 330 318 311 319 324 322 316 304 286 271 258 251 245 230 215 208 203 203 210 216 216 214 212 209 209 213 217 215 211 209 209 209 209 212 214 217 217 215 212 209 209 209 211 213
266 270 271 271 269 266 261 253 246 241 237 233 231 233 238 245 254 262 269 277 287 301 312 321 332 338 340 337 334 333 333 333 334 334 331 330 331 333 336 338 337 334 328 322 323 327 326 325 319 294 272 259 250 242 229 219 214 207 201 204 210 213 213 210 206 208 213 214 209 204 202 201 203 206 209 211 212 210 207 207 206 206 207 209 215
264 266 268 269 270 270 264 254 244 237 232 228 228 232 239 246 254 262 270 279 293 308 319 332 343 345 343 341 338 338 339 339 339 340 338 336 335 336 340 342 340 338 336 331 331 338 339 336 343 1 348 307 249 222 209 208 211 206 202 203 207 209 210 210 209 212 216 214 207 201 199 198 201 204 205 205 203 199 199 201 203 204 206 210 215
259 259 266 272 271 267 259 250 244 236 229 227 229 234 240 246 254 264 272 281 299 315 327 340 348 347 345 344 342 342 344 343 343 344 344 344 342 341 343 346 344 342 342 339 335 338 342 342 348 7 8 0 262 197 182 169 183 197 201 203 203 202 203 206 210 213 214 211 206 201 198 199 201 202 200 198 196 196 197 199 200 202 206 211 211
258 261 269 268 255 248 244 238 233 227 224 226 229 234 241 249 256 264 271 284 305 320 331 342 347 347 347 347 346 347 348 347 347 348 348 349 350 349 348 349 348 346 347 346 339 334 337 342 344 338 335 346 322 224 184 159 153 173 186 189 190 191 193 200 207 212 211 207 203 202 201 201 200 197 195 194 195 197 198 198 200 202 205 208 208
Height
3128 3128 3128 3128 3129 3129 3130 3130 3130 3130 3130 3130 3130 3130 3130 3129 3129 3129 3128 3128 3128 3128 3127 3128 3128 3128 3128 3128 3127 3127 3128 3129 3130 3130 3130 3130 3131 3132 3133 3134 3135 3137 3139 3140 3142 3143 3145 3146 3148 3150 3150 3152 3154 3155 3156 3157 3158 3159 3161 3162 3163 3164 3165 3166 3167 3168 3169 3170 3171 3172 3172 3173 3173 3174 3174 3175 3176 3177 3179 3181 3181 3182 3183 3184 3185
3125 3125 3126 3126 3127 3127 3128 3128 3128 3128 3128 3129 3129 3129 3129 3128 3128 3127 3127 3127 3126 3126 3126 3126 3126 3126 3126 3125 3125 3124 3124 3125 3126 3127 3127 3128 3128 3129 3129 3131 3132 3134 3135 3136 3138 3139 3141 3143 3144 3146 3146 3148 3151 3152 3153 3153 3154 3156 3158 3159 3161 3161 3162 3164 3164 3165 3167 3168 3170 3170 3170 3170 3171 3172 3172 3172 3174 3175 3176 3177 3178 3179 3180 3182 3183
3123 3123 3124 3124 3125 3125 3126 3126 3126 3127 3127 3127 3127 3127 3127 3127 3127 3126 3126 3125 3125 3124 3124 3124 3124 3124 3124 3123 3123 3122 3121 3121 3122 3123 3124 3125 3126 3126 3126 3127 3129 3130 3131 3133 3134 3135 3137 3138 3140 3141 3143 3145 3147 3148 3149 3150 3151 3153 3153 3155 3157 3158 3159 3161 3161 3162 3164 3166 3167 3167 3168 3169 3169 3169 3170 3171 3172 3173 3173 3174 3175 3176 3178 3179 3180
3121 3122 3122 3123 3123 3123 3124 3124 3125 3125 3125 3125 3125 3126 3126 3125 3125 3125 3124 3124 3124 3124 3123 3123 3122 3122 3122 3121 3121 3120 3119 3119 3119 3119 3120 3121 3122 3123 3123 3124 3125 3126 3128 3129 3131 3132 3133 3134 3135 3136 3138 3140 3142 3144 3145 3146 3148 3149 3149 3151 3153 3154 3155 3157 3157 3158 3160 3162 3163 3165 3166 3167 3166 3167 3168 3170 3170 3169 3170 3171 3171 3173 3174 3176 3177
3120 3120 3121 3121 3121 3122 3122 3122 3123 3123 3123 3123 3123 3124 3124 3124 3124 3123 3123 3123 3122 3122 3121 3121 3121 3120 3120 3119 3119 3118 3118 3117 3116 3116 3116 3117 3118 3119 3120 3120 3121 3122 3124 3125 3127 3128 3129 3131 3131 3132 3134 3136 3138 3139 3141 3143 3144 3145 3146 3147 3149 3150 3152 3152 3153 3155 3157 3158 3159 3161 3163 3163 3165 3166 3166 3167 3166 3166 3167 3167 3168 3169 3170 3172 3173
3118 3119 3119 3119 3120 3120 3120 3121 3121 3121 3122 3122 3122 3122 3122 3122 3122 3122 3121 3121 3120 3120 3119 3119 3119 3119 3118 3117 3117 3116 3116 3115 3114 3113 3113 3113 3114 3115 3116 3117 3118 3119 3120 3121 3122 3124 3125 3127 3128 3129 3130 3131 3133 3135 3137 3139 3140 3142 3144 3145 3145 3146 3148 3148 3148 3151 3153 3155 3155 3157 3159 3160 3162 3164 3163 3164 3163 3163 3164 3164 3164 3166 3167 3168 3169
3117 3117 3117 3117 3118 3118 3118 3119 3119 3120 3120 3120 3120 3120 3120 3120 3120 3120 3120 3119 3119 3118 3117 3117 3117 3117 3116 3116 3115 3115 3114 3113 3113 3112 3111 3110 3111 3111 3112 3113 3114 3115 3116 3117 3118 3119 3121 3122 3123 3124 3126 3127 3128 3130 3132 3134 3136 3138 3140 3141 3141 3142 3144 3143 3144 3147 3148 3150 3152 3153 3155 3156 3159 3160 3161 3162 3161 3160 3161 3161 3162 3163 3163 3165 3166
3115 3115 3115 3116 3116 3116 3117 3117 3117 3118 3118 3118 3118 3118 3118 3118 3118 3118 3118 3117 3117 3116 3116 3115 3115 3115 3115 3114 3113 3113 3112 3111 3110 3110 3109 3108 3108 3108 3109 3109 3110 3110 3111 3113 3114 3115 3116 3117 3119 3120 3121 3123 3124 3125 3127 3130 3132 3133 3134 3136 3137 3138 3139 3139 3141 3143 3143 3146 3149 3149 3151 3152 3154 3156 3158 3159 3159 3159 3158 3157 3158 3159 3160 3161 3162
3113 3113 3113 3114 3114 3114 3115 3115 3116 3116 3116 3116 3117 3117 3116 3116 3116 3116 3116 3115 3115 3114 3113 3113 3113 3113 3112 3112 3111 3110 3110 3109 3108 3107 3107 3107 3106 3105 3105 3106 3106 3107 3107 3108 3109 3110 3111 3112 3114 3115 3117 3118 3119 3120 3122 3124 3126 3128 3130 3131 3132 3134 3136 3136 3137 3139 3139 3142 3145 3146 3147 3148 3150 3152 3153 3155 3156 3156 3156 3155 3154 3156 3157 3158 3159
3111 3111 3112 3112 3112 3112 3113 3113 3114 3114 3114 3115 3115 3115 3114 3114 3114 3114 3113 3113 3112 3112 3111 3110 3110 3110 3110 3109 3108 3108 3107 3107 3106 3105 3105 3104 3104 3103 3103 3102 3103 3103 3103 3104 3104 3105 3106 3107 3108 3110 3112 3113 3115 3116 3117 3119 3120 3123 3125 3127 3128 3129 3131 3131 3132 3134 3135 3137 3140 3142 3144 3144 3145 3148 3149 3151 3151 3152 3154 3153 3151 3152 3154 3155 3156
3109 3109 3109 3110 3110 3110 3111 3112 3112 3112 3112 3113 3113 3113 3112 3112 3112 3111 3111 3110 3110 3109 3109 3108 3108 3107 3107 3106 3106 3105 3105 3104 3103 3103 3102 3102 3101 3101 3100 3100 3100 3099 3100 3100 3100 3100 3101 3102 3103 3104 3106 3108 3109 3111 3112 3114 3115 3117 3119 3121 3123 3124 3125 3126 3127 3129 3130 3132 3134 3136 3139 3141 3142 3144 3146 3148 3149 3148 3150 3150 3149 3150 3151 3152 3153
3107 3107 3107 3107 3108 3108 3109 3109 3110 3110 3110 3110 3110 3110 3110 3110 3109 3109 3108 3108 3107 3107 3106 3105 3105 3105 3104 3104 3103 3102 3102 3101 3100 3100 3100 3099 3098 3098 3098 3097 3097 3096 3096 3096 3096 3096 3096 3097 3098 3099 3100 3102 3104 3105 3107 3108 3110 3112 3113 3114 3117 3119 3120 3121 3122 3123 3125 3126 3129 3131 3135 3137 3138 3140 3143 3144 3145 3146 3146 3147 3147 3147 3147 3148 3149
3105 3105 3104 3104 3105 3106 3107 3107 3107 3107 3108 3108 3108 3108 3108 3107 3107 3106 3105 3105 3104 3104 3103 3102 3102 3102 3101 3101 3100 3099 3099 3098 3097 3097 3097 3096 3096 3095 3095 3094 3094 3093 3093 3092 3092 3092 3092 3092 3093 3093 3095 3096 3098 3100 3102 3103 3104 3106 3108 3109 3111 3113 3114 3115 3116 3119 3120 3121 3124 3127 3130 3132 3134 3137 3139 3140 3142 3143 3143 3143 3144 3145 3144 3145 3145
3102 3102 3102 3102 3102 3103 3104 3104 3104 3105 3105 3105 3105 3105 3105 3104 3104 3103 3102 3101 3101 3100 3100 3099 3098 3098 3098 3097 3097 3096 3096 3095 3094 3093 3093 3093 3092 3092 3091 3091 3090 3090 3089 3089 3089 3089 3088 3088 3088 3088 3089 3090 3092 3094 3096 3098 3099 3100 3102 3104 3106 3107 3109 3110 3111 3114 3115 3116 3119 3122 3124 3127 3130 3133 3134 3136 3138 3139 3140 3140 3142 3143 3142 3142 3142
3099 3100 3100 3099 3100 3101 3101 3101 3101 3102 3102 3102 3102 3102 3102 3101 3101 3100 3098 3098 3097 3096 3096 3095 3095 3094 3094 3093 3093 3093 3092 3092 3091 3090 3089 3089 3089 3088 3088 3087 3087 3086 3086 3086 3085 3085 3085 3085 3084 3084 3084 3085 3086 3088 3090 3092 3094 3095 3097 3098 3100 3102 3103 3104 3107 3109 3110 3111 3113 3115 3117 3121 3124 3127 3129 3131 3133 3135 3136 3138 3138 3140 3139 3139 3140
3096 3096 3097 3097 3098 3098 3098 3098 3099 3099 3099 3099 3099 3099 3098 3098 3097 3096 3095 3094 3093 3093 3092 3092 3091 3091 3090 3090 3089 3089 3088 3088 3088 3087 3086 3086 3085 3084 3084 3084 3083 3082 3082 3082 3081 3081 3081 3081 3081 3081 3081 3081 3081 3082 3084 3086 3088 3090 3091 3093 3095 3097 3098 3099 3102 3104 3106 3107 3108 3110 3112 3114 3118 3122 3124 3127 3129 3130 3132 3134 3135 3136 3137 3137 3137
3093 3093 3094 3095 3095 3095 3096 3096 3096 3096 3096 3095 3095 3095 3095 3094 3094 3093 3091 3090 3090 3089 3089 3089 3088 3087 3087 3086 3086 3085 3085 3084 3084 3083 3083 3082 3081 3080 3080 3079 3079 3078 3078 3078 3077 3077 3076 3076 3076 3077 3077 3077 3077 3077 3078 3080 3082 3083 3086 3088 3089 3091 3093 3094 3096 3098 3101 3102 3103 3104 3105 3107 3111 3116 3119 3121 3124 3125 3128 3130 3131 3132 3134 3134 3135
3090 3091 3091 3092 3093 3093 3093 3093 3093 3093 3093 3092 3092 3092 3092 3091 3090 3089 3088 3087 3087 3086 3086 3085 3084 3084 3083 3082 3082 3082 3081 3081 3080 3080 3079 3079 3078 3077 3076 3075 3074 3074 3073 3073 3073 3072 3072 3072 3072 3072 3073 3073 3073 3073 3073 3074 3076 3077 3079 3081 3084 3086 3087 3089 3091 3093 3095 3096 3097 3098 3099 3101 3104 3109 3113 3116 3118 3121 3123 3125 3126 3128 3130 3130 3132
3088 3089 3090 3090 3090 3091 3090 3090 3089 3090 3090 3089 3089 3089 3088 3088 3087 3086 3085 3084 3083 3083 3082 3082 3081 3080 3079 3079 3078 3078 3078 3077 3076 3076 3075 3074 3074 3072 3072 3071 3070 3069 3068 3068 3067 3068 3067 3067 3067 3067 3068 3068 3069 3069 3069 3070 3070 3071 3073 3075 3078 3080 3082 3083 3085 3088 3089 3090 3092 3093 3095 3097 3100 3103 3107 3110 3112 3115 3118 3121 3122 3124 3125 3126 3128
3086 3087 3087 3088 3088 3088 3088 3087 3086 3087 3087 3086 3086 3086 3085 3084 3084 3083 3082 3081 3080 3079 3079 3078 3078 3077 3076 3076 3075 3075 3074 3073 3073 3072 3071 3070 3068 3067 3067 3066 3065 3064 3063 3062 3062 3062 3062 3062 3062 3062 3063 3063 3064 3065 3065 3065 3065 3066 3068 3070 3072 3074 3076 3077 3079 3082 3084 3085 3086 3088 3090 3093 3095 3098 3101 3104 3107 3109 3112 3116 3118 3120 3121 3122 3124
3083 3084 3085 3085 3086 3087 3086 3084 3084 3084 3084 3083 3083 3082 3082 3081 3080 3079 3078 3077 3077 3076 3075 3075 3075 3074 3073 3072 3072 3071 3071 3070 3069 3068 3066 3065 3063 3062 3061 3060 3059 3059 3058 3057 3056 3056 3056 3057 3057 3057 3057 3058 3058 3059 3060 3060 3060 3061 3062 3064 3066 3068 3070 3071 3073 3075 3077 3079 3079 3081 3085 3088 3091 3093 3095 3098 3101 3104 3107 3110 3113 3115 3116 3118 3120
3080 3081 3082 3083 3084 3084 3082 3081 3081 3081 3080 3080 3079 3079 3078 3077 3076 3075 3075 3074 3073 3072 3072 3071 3071 3070 3069 3069 3068 3068 3067 3066 3065 3063 3062 3061 3059 3057 3055 3054 3053 3053 3052 3051 3050 3050 3050 3050 3051 3051 3052 3052 3053 3053 3054 3054 3054 3055 3057 3058 3060 3062 3064 3066 3067 3069 3071 3072 3073 3075 3078 3081 3085 3088 3089 3092 3095 3098 3101 3104 3107 3110 3111 3113 3116
3077 3077 3078 3079 3080 3079 3078 3077 3078 3078 3077 3076 3075 3075 3074 3073 3072 3072 3071 3070 3070 3069 3069 3068 3067 3066 3065 3065 3064 3064 3063 3062 3060 3059 3057 3056 3054 3052 3050 3048 3048 3047 3046 3046 3045 3044 3043 3043 3044 3045 3045 3046 3047 3047 3047 3048 3048 3049 3051 3052 3054 3056 3058 3060 3062 3063 3065 3066 3067 3069 3072 3075 3078 3080 3083 3086 3088 3091 3095 3098 3101 3104 3106 3108 3111
3073 3074 3075 3075 3075 3074 3074 3074 3074 3073 3073 3072 3071 3071 3070 3069 3069 3068 3067 3067 3066 3065 3065 3065 3063 3062 3061 3061 3060 3059 3058 3057 3056 3054 3052 3051 3049 3047 3045 3044 3042 3041 3041 3040 3040 3039 3038 3037 3037 3038 3038 3039 3040 3041 3041 3042 3042 3043 3044 3046 3048 3049 3051 3054 3056 3058 3059 3060 3061 3062 3065 3070 3072 3074 3077 3081 3082 3085 3089 3092 3096 3099 3100 3103 3107
3070 3070 3070 3070 3070 3070 3071 3071 3070 3069 3068 3068 3068 3067 3066 3065 3065 3064 3063 3063 3062 3061 3061 3060 3059 3058 3058 3057 3056 3055 3054 3052 3051 3049 3048 3046 3044 3043 3041 3039 3037 3036 3035 3034 3033 3033 3032 3031 3031 3031 3032 3032 3033 3034 3035 3035 3036 3037 3038 3039 3041 3043 3045 3047 3050 3052 3054 3055 3055 3056 3059 3063 3066 3067 3070 3074 3077 3079 3083 3086 3090 3094 3095 3097 3101
3066 3066 3067 3066 3066 3067 3068 3067 3066 3065 3064 3064 3063 3063 3062 3062 3061 3060 3059 3059 3058 3057 3057 3056 3055 3054 3053 3052 3051 3050 3049 3047 3046 3044 3043 3041 3039 3038 3036 3034 3033 3031 3030 3029 3027 3027 3026 3026 3025 3025 3025 3026 3026 3027 3028 3029 3030 3030 3031 3033 3034 3036 3038 3040 3043 3046 3048 3049 3050 3051 3053 3056 3059 3061 3064 3068 3072 3074 3077 3080 3084 3088 3091 3093 3096
3062 3062 3063 3063 3063 3063 3064 3062 3062 3061 3060 3060 3059 3059 3058 3058 3057 3057 3056 3055 3054 3053 3053 3052 3051 3050 3049 3048 3046 3045 3044 3042 3041 3039 3038 3036 3034 3032 3031 3029 3028 3026 3025 3024 3022 3021 3020 3020 3020 3020 3020 3020 3020 3020 3021 3022 3023 3024 3025 3026 3028 3029 3031 3033 3035 3038 3042 3044 3045 3046 3047 3049 3052 3055 3058 3062 3066 3069 3072 3075 3079 3083 3086 3088 3090
3057 3057 3058 3059 3059 3059 3059 3058 3057 3057 3056 3056 3055 3055 3055 3054 3053 3053 3052 3051 3051 3050 3049 3048 3047 3046 3045 3043 3042 3040 3039 3037 3036 3034 3032 3030 3028 3026 3025 3023 3022 3020 3019 3018 3016 3015 3014 3014 3014 3015 3015 3015 3014 3014 3015 3016 3017 3018 3019 3020 3021 3023 3024 3026 3028 3031 3034 3037 3039 3040 3041 3043 3045 3049 3053 3056 3060 3063 3066 3069 3073 3077 3080 3082 3085
3052 3053 3053 3054 3055 3055 3054 3053 3053 3053 3052 3052 3051 3051 3051 3050 3050 3049 3048 3048 3047 3046 3045 3044 3043 3042 3040 3039 3037 3035 3034 3032 3030 3028 3026 3024 3022 3020 3019 3018 3016 3015 3013 3012 3011 3009 3008 3008 3008 3009 3009 3009 3009 3008 3009 3010 3011 3013 3013 3014 3015 3016 3017 3019 3021 3023 3026 3029 3032 3034 3035 3037 3039 3043 3047 3050 3053 3057 3060 3063 3067 3071 3075 3077 3080
3048 3049 3049 3049 3050 3050 3050 3049 3049 3048 3048 3048 3047 3047 3047 3046 3046 3045 3044 3044 3043 3042 3041 3040 3039 3037 3036 3034 3032 3030 3028 3026 3024 3022 3020 3018 3016 3015 3013 3012 3010 3009 3007 3006 3005 3004 3003 3002 3002 3002 3002 3002 3002 3003 3004 3005 3006 3007 3007 3007 3008 3009 3010 3011 3013 3016 3019 3021 3024 3027 3029 3031 3034 3037 3040 3043 3047 3051 3054 3058 3062 3065 3069 3071 3073
3045 3044 3044 3044 3045 3045 3046 3045 3045 3044 3044 3044 3043 3043 3043 3042 3042 3041 3040 3040 3039 3038 3037 3036 3034 3033 3031 3029 3027 3025 3023 3021 3018 3016 3014 3013 3011 3009 3008 3006 3005 3003 3002 3000 2999 2998 2997 2996 2995 2994 2994 2994 2995 2996 2998 2999 3000 3000 3000 3000 3001 3002 3003 3004 3006 3008 3012 3014 3017 3020 3023 3025 3028 3031 3033 3037 3041 3045 3048 3052 3056 3059 3063 3066 3067
3040 3039 3039 3040 3041 3041 3041 3041 3041 3041 3040 3040 3039 3039 3039 3038 3038 3037 3036 3035 3034 3034 3033 3031 3030 3029 3027 3025 3022 3020 3017 3015 3013 3011 3009 3007 3005 3004 3002 3001 2999 2998 2996 2995 2994 2992 2991 2989 2988 2987 2986 2986 2987 2988 2990 2992 2992 2993 2993 2993 2993 2994 2996 2997 2998 3001 3004 3007 3010 3013 3016 3019 3021 3024 3027 3030 3034 3038 3042 3046 3049 3053 3057 3060 3063
3034 3035 3035 3036 3037 3037 3037 3037 3037 3037 3036 3036 3036 3035 3035 3035 3034 3033 3032 3031 3030 3029 3028 3027 3026 3024 3022 3020 3017 3014 3012 3010 3007 3005 3003 3002 3000 2998 2997 2995 2993 2992 2990 2989 2988 2986 2984 2983 2981 2979 2978 2978 2978 2979 2981 2983 2984 2985 2985 2985 2985 2986 2988 2989 2991 2993 2997 3000 3003 3006 3009 3012 3015 3018 3021 3024 3028 3032 3036 3040 3043 3048 3052 3055 3058
3029 3030 3031 3032 3032 3032 3032 3033 3033 3032 3032 3032 3032 3032 3031 3031 3030 3029 3028 3027 3026 3025 3024 3023 3022 3020 3017 3015 3012 3009 3007 3004 3002 3000 2998 2997 2995 2993 2992 2990 2988 2986 2984 2983 2981 2979 2978 2976 2974 2972 2970 2969 2968 2969 2971 2973 2974 2975 2976 2976 2977 2977 2979 2981 2984 2986 2989 2993 2997 3000 3003 3006 3010 3012 3015 3018 3023 3026 3030 3033 3037 3041 3045 3049 3053
3025 3026 3026 3027 3027 3028 3028 3029 3028 3028 3029 3029 3028 3028 3028 3027 3026 3025 3024 3024 3023 3021 3021 3019 3018 3015 3013 3010 3007 3004 3002 2999 2997 2995 2993 2992 2990 2989 2987 2985 2983 2981 2978 2976 2974 2972 2970 2968 2966 2964 2961 2959 2958 2959 2960 2962 2964 2966 2967 2967 2968 2969 2971 2973 2976 2979 2982 2986 2990 2993 2997 3000 3004 3006 3008 3013 3017 3021 3024 3027 3031 3034 3038 3042 3046
3020 3021 3022 3022 3023 3024 3024 3024 3024 3025 3025 3025 3025 3024 3024 3023 3022 3022 3021 3020 3019 3018 3017 3015 3013 3011 3009 3006 3003 3000 2997 2995 2992 2990 2989 2987 2986 2984 2982 2979 2977 2974 2972 2969 2967 2964 2962 2959 2957 2954 2950 2948 2947 2948 2949 2951 2953 2955 2957 2958 2959 2960 2962 2965 2968 2972 2976 2979 2983 2987 2991 2994 2998 3001 3003 3007 3011 3015 3017 3021 3025 3029 3032 3036 3039
3016 3017 3018 3018 3019 3020 3020 3021 3021 3021 3021 3021 3021 3021 3020 3019 3018 3018 3017 3016 3015 3014 3013 3011 3009 3007 3004 3001 2998 2995 2993 2990 2988 2986 2984 2983 2981 2978 2976 2973 2970 2967 2965 2962 2959 2955 2952 2949 2946 2943 2939 2936 2936 2937 2938 2939 2942 2945 2947 2949 2950 2951 2953 2957 2961 2966 2969 2973 2976 2981 2985 2989 2993 2996 2998 3001 3005 3008 3011 3014 3019 3022 3025 3029 3033
3012 3013 3014 3014 3015 3016 3017 3017 3017 3017 3017 3017 3017 3016 3016 3015 3015 3014 3013 3012 3011 3010 3009 3007 3005 3003 3000 2997 2994 2991 2988 2986 2984 2981 2980 2978 2976 2973 2970 2967 2963 2960 2957 2954 2949 2945 2941 2937 2934 2932 2929 2926 2925 2927 2928 2929 2932 2935 2937 2939 2941 2943 2946 2950 2955 2960 2963 2966 2970 2974 2978 2983 2987 2990 2992 2995 2999 3002 3005 3008 3013 3016 3019 3023 3028
3008 3008 3009 3010 3011 3012 3013 3013 3013 3014 3014 3014 3013 3012 3012 3012 3011 3011 3009 3008 3007 3006 3005 3003 3001 2999 2996 2993 2990 2987 2985 2982 2980 2977 2975 2973 2971 2967 2964 2961 2958 2954 2949 2944 2939 2933 2929 2927 2924 2922 2920 2917 2916 2917 2918 2920 2923 2925 2927 2930 2932 2935 2938 2943 2948 2952 2956 2959 2963 2968 2972 2976 2982 2985 2987 2990 2993 2997 2999 3003 3007 3012 3015 3018 3023
3004 3004 3006 3007 3008 3008 3009 3009 3010 3010 3010 3010 3009 3009 3009 3008 3008 3007 3006 3005 3004 3003 3002 3000 2998 2995 2993 2990 2987 2984 2981 2978 2976 2973 2971 2969 2966 2962 2959 2956 2952 2947 2940 2934 2929 2923 2920 2918 2917 2915 2913 2910 2908 2908 2909 2911 2913 2916 2918 2921 2924 2927 2931 2936 2941 2945 2949 2952 2956 2961 2965 2970 2976 2979 2981 2985 2989 2991 2994 2998 3002 3007 3010 3014 3019
3000 3000 3002 3004 3004 3005 3005 3006 3006 3006 3006 3006 3005 3006 3006 3005 3005 3004 3003 3002 3000 2999 2999 2997 2994 2992 2990 2987 2984 2980 2977 2975 2972 2970 2967 2964 2961 2958 2955 2950 2945 2938 2932 2927 2922 2918 2914 2913 2912 2909 2906 2904 2902 2900 2900 2902 2904 2907 2910 2913 2916 2920 2924 2929 2933 2938 2942 2946 2950 2955 2959 2964 2968 2972 2976 2980 2984 2986 2989 2993 2998 3003 3007 3011 3015
2997 2997 2999 3000 3001 3001 3001 3002 3002 3002 3002 3002 3002 3003 3003 3002 3002 3001 3000 2998 2997 2997 2995 2993 2991 2989 2987 2984 2981 2977 2974 2971 2969 2966 2963 2960 2957 2954 2950 2945 2938 2932 2927 2923 2918 2914 2911 2909 2907 2904 2900 2898 2896 2894 2894 2896 2898 2900 2903 2906 2909 2914 2918 2923 2927 2932 2936 2940 2944 2949 2952 2955 2960 2966 2971 2975 2979 2981 2984 2988 2993 2998 3003 3007 3011
2994 2995 2996 2997 2997 2997 2998 2998 2998 2998 2998 2999 2999 3000 2999 2999 2999 2998 2996 2995 2995 2994 2992 2990 2988 2986 2984 2981 2977 2974 2971 2968 2966 2963 2960 2956 2953 2950 2946 2940 2934 2928 2923 2919 2915 2911 2907 2905 2902 2899 2896 2894 2892 2891 2890 2892 2893 2896 2898 2901 2905 2909 2914 2918 2922 2926 2930 2935 2938 2942 2945 2950 2955 2961 2966 2970 2974 2976 2979 2983 2988 2993 2998 3002 3006
2991 2992 2992 2993 2994 2994 2994 2995 2995 2995 2995 2996 2997 2997 2996 2996 2996 2994 2993 2993 2992 2991 2989 2987 2986 2983 2981 2978 2974 2971 2968 2966 2963 2959 2956 2952 2949 2946 2941 2936 2930 2924 2920 2916 2912 2908 2904 2901 2898 2896 2893 2891 2889 2888 2888 2889 2890 2893 2896 2899 2902 2906 2910 2914 2918 2922 2926 2929 2932 2935 2941 2947 2951 2956 2960 2965 2968 2971 2974 2978 2983 2988 2993 2997 3001
2989 2989 2989 2990 2991 2991 2991 2992 2992 2992 2992 2993 2994 2994 2994 2994 2993 2992 2991 2991 2990 2988 2987 2985 2983 2981 2978 2975 2972 2969 2966 2963 2960 2956 2952 2949 2945 2941 2937 2932 2927 2921 2917 2913 2908 2904 2901 2897 2895 2893 2891 2889 2887 2886 2886 2887 2888 2891 2893 2897 2900 2904 2907 2911 2914 2917 2920 2923 2926 2932 2938 2943 2946 2950 2955 2959 2962 2966 2970 2975 2979 2984 2989 2993 2997
2986 2986 2987 2987 2988 2988 2988 2988 2989 2989 2989 2990 2991 2991 2991 2991 2990 2990 2990 2989 2987 2986 2985 2983 2981 2979 2976 2973 2970 2967 2964 2960 2957 2952 2949 2945 2942 2937 2933 2928 2923 2918 2914 2910 2906 2901 2898 2894 2891 2889 2888 2887 2885 2884 2884 2885 2887 2889 2891 2894 2898 2901 2904 2906 2909 2912 2915 2918 2922 2928 2933 2937 2941 2945 2950 2954 2957 2962 2966 2970 2975 2980 2985 2989 2993
2983 2984 2984 2985 2985 2985 2985 2985 2986 2986 2987 2988 2989 2989 2989 2989 2989 2989 2988 2986 2985 2984 2983 2982 2980 2977 2974 2971 2968 2965 2961 2958 2954 2950 2946 2943 2939 2935 2930 2925 2920 2915 2911 2907 2903 2899 2895 2892 2889 2887 2885 2884 2883 2883 2882 2883 2885 2887 2889 2892 2895 2898 2901 2903 2906 2909 2912 2915 2919 2923 2926 2930 2935 2940 2945 2949 2953 2957 2962 2966 2970 2975 2981 2986 2990
2981 2982 2982 2982 2982 2981 2982 2982 2983 2983 2984 2986 2987 2987 2987 2987 2987 2987 2986 2985 2984 2983 2982 2980 2978 2975 2972 2969 2966 2963 2959 2956 2951 2947 2944 2940 2937 2933 2928 2922 2916 2911 2907 2904 2901 2897 2894 2891 2888 2885 2883 2882 2881 2881 2881 2881 2882 2884 2887 2890 2893 2897 2899 2902 2905 2908 2910 2913 2916 2919 2922 2926 2931 2935 2940 2944 2948 2953 2958 2962 2967 2972 2977 2982 2986
2979 2980 2980 2979 2979 2979 2979 2980 2980 2981 2983 2984 2985 2985 2986 2986 2986 2985 2984 2984 2983 2982 2981 2979 2977 2974 2971 2967 2964 2961 2957 2954 2950 2946 2942 2938 2934 2930 2926 2921 2915 2910 2905 2902 2899 2896 2892 2890 2887 2885 2882 2880 2879 2880 2880 2880 2881 2883 2885 2888 2891 2895 2899 2902 2904 2907 2909 2912 2914 2917 2920 2923 2927 2931 2935 2940 2944 2949 2954 2959 2964 2969 2974 2979 2983
2978 2978 2978 2978 2978 2977 2977 2978 2978 2980 2981 2983 2984 2984 2985 2985 2984 2984 2983 2982 2982 2981 2980 2978 2975 2973 2969 2966 2963 2959 2956 2953 2949 2945 2941 2937 2933 2928 2924 2919 2914 2909 2905 2901 2898 2895 2892 2889 2887 2884 2882 2881 2879 2880 2880 2880 2880 2882 2884 2887 2890 2893 2897 2901 2904 2906 2908 2910 2913 2916 2918 2922 2925 2929 2933 2937 2942 2947 2952 2956 2961 2967 2972 2976 2979
2977 2977 2977 2977 2976 2976 2976 2976 2977 2979 2981 2982 2983 2983 2983 2983 2983 2983 2982 2981 2981 2980 2978 2976 2974 2971 2968 2965 2962 2958 2955 2952 2948 2944 2940 2937 2933 2928 2923 2918 2913 2909 2904 2901 2898 2895 2892 2889 2887 2884 2883 2882 2881 2880 2880 2880 2881 2882 2884 2886 2889 2892 2896 2900 2902 2905 2907 2909 2912 2914 2917 2920 2924 2928 2932 2936 2941 2945 2950 2955 2960 2965 2969 2973 2977